• în Republica Moldova
  • Lista ţărilor
  • Pe 7 zile
  • Temperatura apei
  • Hartă satelitară
  • Meteo pe hartă
  • Widget-uri
  • user-avatar
    Intrare

    Meteo pe oră la Gjirokaster

    Astăzi, 19 Ianuarie, Joi

    Timp Temperatura Precipitaţii Vânt Presiune Umiditate
    00:00 -4°C° 0,8 mm 4 m/s 649 mmHg 94%
    01:00 -6°C° 0 mm 3 m/s 648 mmHg 94%
    02:00 -7°C° 0,2 mm 4 m/s 649 mmHg 93%
    03:00 -7°C° 0,2 mm 4 m/s 649 mmHg 92%
    04:00 -7°C° 0,2 mm 4 m/s 649 mmHg 91%
    05:00 -7°C° 0,1 mm 4 m/s 650 mmHg 91%
    06:00 -7°C° 0,1 mm 4 m/s 650 mmHg 90%
    07:00 -7°C° 0,1 mm 4 m/s 650 mmHg 90%
    08:00 -5°C° 0,2 mm 4 m/s 651 mmHg 89%
    09:00 -4°C° 0,2 mm 4 m/s 652 mmHg 89%
    10:00 -3°C° 0,2 mm 4 m/s 652 mmHg 88%
    11:00 -3°C° 0,1 mm 4 m/s 652 mmHg 87%
    12:00 -2°C° 0,1 mm 4 m/s 653 mmHg 86%
    13:00 -2°C° 0,1 mm 4 m/s 653 mmHg 86%
    14:00 -2°C° 0 mm 4 m/s 653 mmHg 87%
    15:00 -2°C° 0 mm 4 m/s 653 mmHg 88%
    16:00 -2°C° 0 mm 3 m/s 653 mmHg 89%
    17:00 -4°C° 0 mm 3 m/s 653 mmHg 89%
    18:00 -5°C° 0 mm 3 m/s 653 mmHg 89%
    19:00 -6°C° 0 mm 3 m/s 653 mmHg 89%
    20:00 -6°C° 0 mm 3 m/s 654 mmHg 89%
    21:00 -7°C° 0 mm 3 m/s 654 mmHg 89%
    22:00 -7°C° 0 mm 3 m/s 654 mmHg 88%
    23:00 -7°C° 0 mm 3 m/s 654 mmHg 88%

    Mâine, 20 Ianuarie, Vineri

    Timp Temperatura Precipitaţii Vânt Presiune Umiditate
    00:00 -7°C° 0 mm 3 m/s 655 mmHg 88%
    01:00 -7°C° 0 mm 3 m/s 655 mmHg 88%
    02:00 -8°C° 0 mm 3 m/s 655 mmHg 88%
    03:00 -8°C° 0 mm 3 m/s 655 mmHg 88%
    04:00 -8°C° 0 mm 3 m/s 655 mmHg 88%
    05:00 -8°C° 0 mm 3 m/s 655 mmHg 87%
    06:00 -8°C° 0 mm 3 m/s 655 mmHg 87%
    07:00 -8°C° 0 mm 3 m/s 656 mmHg 87%
    08:00 -6°C° 0 mm 3 m/s 656 mmHg 85%
    09:00 -5°C° 0 mm 3 m/s 657 mmHg 83%
    10:00 -2°C° 0 mm 3 m/s 658 mmHg 81%
    11:00 -1°C° 0 mm 3 m/s 658 mmHg 79%
    12:00 +1°C° 0 mm 2 m/s 658 mmHg 78%
    13:00 +1°C° 0 mm 2 m/s 658 mmHg 76%
    14:00 +1°C° 0 mm 2 m/s 657 mmHg 79%
    15:00 -1°C° 0 mm 2 m/s 657 mmHg 82%
    16:00 -2°C° 0 mm 2 m/s 657 mmHg 85%
    17:00 -3°C° 0 mm 2 m/s 657 mmHg 86%
    18:00 -4°C° 0 mm 2 m/s 657 mmHg 87%
    19:00 -6°C° 0 mm 2 m/s 656 mmHg 89%
    20:00 -6°C° 0 mm 2 m/s 656 mmHg 88%
    21:00 -7°C° 0 mm 3 m/s 656 mmHg 88%
    22:00 -8°C° 0 mm 3 m/s 656 mmHg 87%
    23:00 -8°C° 0 mm 3 m/s 656 mmHg 86%

    Poimâine, 21 Ianuarie, Sâmbătă

    Timp Temperatura Precipitaţii Vânt Presiune Umiditate
    00:00 -8°C° 0 mm 3 m/s 656 mmHg 85%
    01:00 -8°C° 0 mm 3 m/s 656 mmHg 84%
    02:00 -8°C° 0 mm 3 m/s 656 mmHg 84%
    03:00 -8°C° 0 mm 3 m/s 656 mmHg 84%
    04:00 -8°C° 0 mm 3 m/s 656 mmHg 83%
    05:00 -7°C° 0 mm 2 m/s 656 mmHg 83%
    06:00 -7°C° 0 mm 2 m/s 656 mmHg 83%
    07:00 -7°C° 0 mm 2 m/s 655 mmHg 82%
    08:00 -5°C° 0 mm 2 m/s 656 mmHg 79%
    09:00 -3°C° 0 mm 2 m/s 657 mmHg 76%
    10:00 -1°C° 0 mm 2 m/s 657 mmHg 73%
    11:00 +1°C° 0 mm 2 m/s 657 mmHg 72%
    12:00 +3°C° 0 mm 1 m/s 657 mmHg 71%
    13:00 +3°C° 0 mm 1 m/s 657 mmHg 70%
    14:00 +3°C° 0 mm 1 m/s 657 mmHg 74%
    15:00 +2°C° 0 mm 1 m/s 656 mmHg 79%
    16:00 +1°C° 0 mm 1 m/s 656 mmHg 83%
    17:00 -1°C° 0 mm 1 m/s 656 mmHg 85%
    18:00 -2°C° 0 mm 1 m/s 656 mmHg 87%
    19:00 -4°C° 0 mm 1 m/s 655 mmHg 89%
    20:00 -6°C° 0 mm 2 m/s 655 mmHg 88%
    21:00 -6°C° 0 mm 2 m/s 656 mmHg 87%
    22:00 -6°C° 0 mm 2 m/s 656 mmHg 86%
    23:00 -6°C° 0 mm 2 m/s 656 mmHg 85%

    22 Ianuarie, Duminică

    Timp Temperatura Precipitaţii Vânt Presiune Umiditate
    00:00 -7°C° 0 mm 2 m/s 656 mmHg 84%
    01:00 -7°C° 0 mm 2 m/s 656 mmHg 83%
    02:00 -8°C° 0 mm 3 m/s 656 mmHg 82%
    03:00 -8°C° 0 mm 3 m/s 656 mmHg 81%
    04:00 -8°C° 0 mm 3 m/s 656 mmHg 80%
    05:00 -8°C° 0 mm 3 m/s 656 mmHg 80%
    06:00 -8°C° 0 mm 3 m/s 656 mmHg 80%
    07:00 -8°C° 0 mm 3 m/s 656 mmHg 80%
    08:00 -6°C° 0 mm 3 m/s 657 mmHg 77%
    09:00 -4°C° 0 mm 3 m/s 657 mmHg 73%
    10:00 -1°C° 0 mm 2 m/s 658 mmHg 70%
    11:00 +1°C° 0 mm 2 m/s 658 mmHg 70%
    12:00 +2°C° 0 mm 2 m/s 658 mmHg 70%
    13:00 +2°C° 0 mm 2 m/s 658 mmHg 70%
    14:00 +1°C° 0 mm 2 m/s 658 mmHg 74%
    15:00 +1°C° 0 mm 2 m/s 657 mmHg 77%
    16:00 -1°C° 0 mm 2 m/s 657 mmHg 81%
    17:00 -2°C° 0 mm 2 m/s 657 mmHg 83%
    18:00 -3°C° 0 mm 2 m/s 657 mmHg 84%
    19:00 -5°C° 0 mm 3 m/s 657 mmHg 86%
    20:00 -6°C° 0 mm 3 m/s 657 mmHg 85%
    21:00 -6°C° 0 mm 3 m/s 657 mmHg 85%
    22:00 -6°C° 0 mm 3 m/s 657 mmHg 84%
    23:00 -6°C° 0 mm 3 m/s 657 mmHg 84%

    23 Ianuarie, Luni

    Timp Temperatura Precipitaţii Vânt Presiune Umiditate
    00:00 -7°C° 0 mm 3 m/s 656 mmHg 83%
    01:00 -7°C° 0 mm 3 m/s 656 mmHg 83%
    02:00 -8°C° 0 mm 4 m/s 656 mmHg 83%
    03:00 -8°C° 0 mm 4 m/s 655 mmHg 82%
    04:00 -7°C° 0 mm 4 m/s 655 mmHg 82%
    05:00 -8°C° 0 mm 4 m/s 655 mmHg 82%
    06:00 -8°C° 0 mm 4 m/s 655 mmHg 82%
    07:00 -8°C° 0 mm 4 m/s 655 mmHg 82%
    08:00 -5°C° 0 mm 4 m/s 655 mmHg 81%
    09:00 -4°C° 0 mm 4 m/s 656 mmHg 79%
    10:00 -3°C° 0 mm 4 m/s 656 mmHg 77%
    11:00 -3°C° 0,3 mm 4 m/s 655 mmHg 78%
    12:00 -2°C° 0,3 mm 4 m/s 655 mmHg 79%
    13:00 -2°C° 0,3 mm 4 m/s 655 mmHg 80%
    14:00 -3°C° 1,4 mm 4 m/s 654 mmHg 84%
    15:00 -3°C° 1,4 mm 4 m/s 654 mmHg 88%
    16:00 -4°C° 1,4 mm 4 m/s 653 mmHg 91%
    17:00 -4°C° 1,4 mm 4 m/s 653 mmHg 92%
    18:00 -4°C° 1,4 mm 4 m/s 652 mmHg 92%
    19:00 -4°C° 1,4 mm 4 m/s 652 mmHg 93%
    20:00 -4°C° 1,7 mm 4 m/s 652 mmHg 93%
    21:00 -4°C° 1,7 mm 4 m/s 651 mmHg 94%
    22:00 -5°C° 1,7 mm 5 m/s 651 mmHg 94%
    23:00 -5°C° 2,1 mm 5 m/s 651 mmHg 94%

    24 Ianuarie, Marţi

    Timp Temperatura Precipitaţii Vânt Presiune Umiditate
    00:00 -4°C° 2,1 mm 4 m/s 650 mmHg 94%
    01:00 -4°C° 2,1 mm 4 m/s 650 mmHg 95%
    02:00 -4°C° 2,5 mm 4 m/s 649 mmHg 95%
    03:00 -4°C° 2,5 mm 4 m/s 649 mmHg 95%
    04:00 -4°C° 2,5 mm 4 m/s 648 mmHg 95%
    05:00 -4°C° 1,8 mm 4 m/s 648 mmHg 95%
    06:00 -4°C° 1,8 mm 4 m/s 648 mmHg 95%
    07:00 -4°C° 1,8 mm 4 m/s 647 mmHg 95%
    08:00 -4°C° 0,8 mm 4 m/s 648 mmHg 95%
    09:00 -4°C° 0,8 mm 3 m/s 648 mmHg 95%
    10:00 -2°C° 0,8 mm 3 m/s 648 mmHg 95%
    11:00 -2°C° 0,7 mm 3 m/s 648 mmHg 94%
    12:00 -2°C° 0,7 mm 3 m/s 647 mmHg 93%
    13:00 -2°C° 0,7 mm 3 m/s 647 mmHg 93%
    14:00 -1°C° 0,1 mm 3 m/s 647 mmHg 93%
    15:00 -1°C° 0,1 mm 3 m/s 647 mmHg 92%
    16:00 -1°C° 0,1 mm 3 m/s 647 mmHg 92%
    17:00 -2°C° 0 mm 3 m/s 647 mmHg 93%
    18:00 -2°C° 0 mm 3 m/s 647 mmHg 93%
    19:00 -4°C° 0 mm 3 m/s 647 mmHg 93%
    20:00 -4°C° 0 mm 3 m/s 647 mmHg 94%
    21:00 -5°C° 0 mm 3 m/s 647 mmHg 94%
    22:00 -4°C° 0 mm 2 m/s 647 mmHg 94%
    23:00 -4°C° 0 mm 2 m/s 646 mmHg 94%
    Arată mai mult